TimeCDT,TemperatureF,Dew PointF,Humidity,Sea Level PressureIn,VisibilityMPH,Wind Direction,Wind SpeedMPH,Gust SpeedMPH,PrecipitationIn,Events,Conditions,WindDirDegrees,DateUTC
12:58 AM,49.1,17.6,29,30.15,10.0,SSE,12.7,-,N/A,,Clear,150,2013-03-27 05:58:00
1:58 AM,50.4,16.7,26,30.13,10.0,SSE,15.0,23.0,N/A,,Clear,160,2013-03-27 06:58:00
2:58 AM,50.7,16.5,26,30.10,10.0,South,19.6,29.9,N/A,,Clear,170,2013-03-27 07:58:00
3:58 AM,48.9,16.7,28,30.08,10.0,SSE,17.3,-,N/A,,Clear,160,2013-03-27 08:58:00
4:58 AM,48.0,19.0,32,30.08,10.0,South,19.6,-,N/A,,Clear,170,2013-03-27 09:58:00
5:58 AM,46.9,20.8,36,30.07,10.0,South,13.8,23.0,N/A,,Clear,170,2013-03-27 10:58:00
6:58 AM,45.5,22.5,40,30.09,10.0,SSE,10.4,-,N/A,,Clear,160,2013-03-27 11:58:00
7:58 AM,46.2,25.0,43,30.09,10.0,South,19.6,29.9,N/A,,Clear,180,2013-03-27 12:58:00
8:58 AM,50.0,29.1,45,30.11,10.0,South,20.7,28.8,N/A,,Clear,180,2013-03-27 13:58:00
9:58 AM,53.6,34.0,47,30.12,10.0,South,20.7,31.1,N/A,,Clear,190,2013-03-27 14:58:00
10:58 AM,57.4,36.7,46,30.10,10.0,South,25.3,34.5,N/A,,Clear,190,2013-03-27 15:58:00
11:58 AM,61.0,37.8,42,30.11,10.0,South,23.0,-,N/A,,Clear,180,2013-03-27 16:58:00
12:58 PM,65.8,40.5,39,30.07,10.0,SSW,25.3,32.2,N/A,,Partly Cloudy,200,2013-03-27 17:58:00
1:58 PM,69.4,40.1,34,30.02,10.0,South,24.2,33.4,N/A,,Clear,180,2013-03-27 18:58:00
2:58 PM,71.4,40.5,33,29.99,10.0,South,24.2,31.1,N/A,,Partly Cloudy,170,2013-03-27 19:58:00
3:58 PM,74.1,40.6,30,29.97,10.0,South,20.7,28.8,N/A,,Partly Cloudy,180,2013-03-27 20:58:00
4:58 PM,74.7,40.8,30,29.93,10.0,South,20.7,32.2,N/A,,Clear,170,2013-03-27 21:58:00
5:58 PM,74.5,41.0,30,29.94,10.0,South,23.0,29.9,N/A,,Clear,170,2013-03-27 22:58:00
6:58 PM,72.5,40.8,32,29.94,10.0,South,18.4,25.3,N/A,,Clear,180,2013-03-27 23:58:00
7:58 PM,67.6,40.8,38,29.96,10.0,South,13.8,-,N/A,,Clear,170,2013-03-28 00:58:00
8:58 PM,66.9,41.5,40,29.96,10.0,South,18.4,-,N/A,,Clear,170,2013-03-28 01:58:00
9:58 PM,64.4,42.6,45,29.99,10.0,SSE,17.3,-,N/A,,Clear,160,2013-03-28 02:58:00
10:58 PM,62.8,43.0,48,30.01,10.0,SSE,16.1,-,N/A,,Clear,160,2013-03-28 03:58:00
11:58 PM,61.2,43.5,52,30.01,10.0,South,18.4,27.6,N/A,,Clear,170,2013-03-28 04:58:00